Regional Weather Roundup
Issued by NWS

Home | Current Version | Previous Version | Text Only | Print | Product List | Glossary On
Versions: 1 2 3 4 5 6 7 8 9 10 11 12 13 14 15 16 17 18 19 20 21 22 23 24 25 26 27 28 29 30 31 32 33 34 35 36 37 38 39 40 41 42 43 44 45 46 47 48 49 50
000
ASUS42 KKEY 220110
RWRKEY

FLORIDA REGIONAL WEATHER ROUNDUP FOR THE FLORIDA KEYS
NATIONAL WEATHER SERVICE KEY WEST FLORIDA
800 PM EST TUE FEB 21 2017

...SOUTH FLORIDA AND THE KEYS...

CITY           SKY/WX    TMP DP  RH WIND       PRES   REMARKS
FORT MYERS     CLOUDY    74  63  68 S5        29.96R
SW REGIONAL AP CLOUDY    74  62  66 S7        29.96R
NAPLES         MOCLDY    73  67  81 S3        29.96R
MIAMI          CLOUDY    70  62  76 E12       29.97F
WEST KENDALL   MOCLDY    73  62  68 SE9       29.96F
HOMESTEAD      CLOUDY    73  65  77 SE7       29.96S
MARATHON       MOCLDY    76  62  62 SE9G17    29.95S
BOCA CHICA NAS CLOUDY    72  61  68 SE12      29.95S
KEY WEST INTL  MOCLDY    75  61  61 SE14      29.96S

...INTERNATIONAL WEATHER...

CITY           SKY/WX    TMP DP  RH WIND       PRES   REMARKS
NASSAU BAHAMAS CLOUDY    73  54  49 CALM      30.02S
CANCUN MEXICO  MOCLDY    79  73  83 SE12      29.89F
COZUMEL MEXICO PTCLDY    79  72  78 S5        29.88F

ADJACENT COASTAL WATERS...

STATION/POSITION TIME  SKY/WX   TEMP    WIND        PRES    WAVE
                                AIR SEA DIR/SP/G            HT/PER
                 (UTC)          (F)     (DEG/KT/KT) (MB)    (FT/S)
PULASKI SHOAL LI 0000            74     130/ 11/ 12 1013.6F
SAND KEY         0050            75     150/ 13/ 14 1014.8S
LONG KEY         0000            75 77  130/ 13/ 15 1014.8F
MOLASSES REEF    NOT AVBL
FOWEY ROCKS      0000            74 75  110/ 15/ 16 1015.5S
Buoy 42097       0100                                 N/A     4/ 4

$$



USA.gov is the U.S. government's official web portal to all federal, state and local government web resources and services.